User: anonymous   Login
Location: Albany
(35.0000°S, 118.0000°E)
Time: 02:54:06
(UTC-04:00)
Language:

Radarsat Rocket - Orbit

View from above orbital plane
View from above orbital plane
View from above satellite
View from above satellite

Ground track
Ground track

The orbit data is extracted from the following two-line orbital elements,

1 23711U 95059B   16150.87712810  .00000001  00000-0  85597-4 0  9998
2 23711 100.5245 137.4724 0368622 105.7377 313.5987 13.12684955985505
Epoch (UTC): 29 May 2016 21:03:03
Eccentricity: 0.0368622
inclination: 100.5245°
perigee height: 933 km
apogee height: 1492 km
right ascension of ascending node: 137.4724°
argument of perigee: 105.7377°
revolutions per day: 13.12684955
mean anomaly at epoch: 313.5987°
orbit number at epoch: 98550

The dashed part of the orbit path shows where the satellite is in the earth's shadow,  

DLR